Wind_Speed
24 22 20 16 10 7 5 1 2 4 1 16 18 19 27 34 28 30 25 21 17 14 12 11 6 5 6 9 5 6 8 7 9 13 16 16 14 14 13 12 13 13 13 17
23 24 20 11 10 7 4 4 10 5 2 9 1 13 34 34 28 30 29 22 17 14 16 13 8 4 7 8 6 7 8 8 10 14 16 17 14 14 14 11 11 11 16 17
24 19 18 13 7 6 6 9 7 10 7 6 1 8 8 37 33 30 29 25 20 17 16 13 9 6 9 8 7 8 8 8 9 13 14 17 17 17 15 13 10 10 11 14
18 20 9 14 10 11 7 5 12 9 9 6 11 4 16 19 32 34 35 29 24 23 19 15 9 7 8 7 8 11 8 8 7 9 9 14 12 14 13 13 11 8 7 15
10 10 14 11 11 14 9 11 6 3 9 6 12 3 12 26 30 37 37 33 29 24 21 19 11 8 6 6 8 10 10 9 8 7 8 11 11 12 16 13 11 10 10 13
15 9 8 10 6 19 7 5 4 3 3 3 4 13 6 16 26 40 35 32 29 25 23 22 16 13 10 9 9 12 12 9 9 9 9 10 11 14 14 12 11 13 13 13
9 13 15 11 10 16 19 15 2 3 2 4 2 8 12 3 6 18 30 31 31 29 26 25 21 17 10 11 9 11 11 11 11 11 10 12 12 12 10 10 12 12 12 14
6 7 13 14 14 19 22 19 6 4 3 4 2 7 1 5 7 13 16 29 30 26 25 27 23 20 14 12 11 10 8 11 13 11 10 12 13 13 12 11 11 11 11 12
6 3 7 9 16 17 25 28 10 9 3 4 4 7 5 10 14 20 20 11 18 33 28 29 27 23 18 16 13 9 9 11 13 13 11 10 12 13 11 12 14 10 10 13
7 5 6 11 21 22 24 23 9 8 3 4 6 7 2 4 2 9 19 22 18 17 20 24 24 24 20 18 17 12 12 9 12 13 12 12 11 11 12 13 12 12 12 13
10 8 3 15 12 26 19 17 8 11 9 4 0 4 5 6 2 5 10 17 13 16 23 24 15 18 23 24 21 13 13 15 12 12 12 11 12 13 14 12 12 12 12 12
4 4 2 8 8 18 15 25 16 12 12 9 3 3 7 8 2 7 10 8 3 12 17 27 34 29 22 20 24 20 15 20 16 12 12 12 13 14 15 14 14 14 13 13
3 3 6 10 11 11 12 18 24 16 12 11 5 2 4 5 3 5 10 5 6 9 21 23 29 35 33 21 18 25 20 17 16 16 15 14 15 16 16 16 16 14 13 13
5 7 7 12 6 7 7 7 16 15 15 9 5 6 6 4 3 1 1 5 5 5 8 9 11 22 32 30 22 23 23 22 25 21 20 19 18 17 18 19 20 18 16 15
5 16 20 17 13 9 7 5 9 11 9 7 7 9 9 7 5 5 5 5 7 8 8 10 12 11 17 25 28 27 25 24 28 29 25 25 23 21 18 18 20 21 19 18
4 5 10 12 8 10 15 9 5 5 10 12 9 15 12 11 9 7 5 5 4 3 5 6 11 14 17 19 23 28 30 27 25 27 30 30 30 26 21 22 20 20 21 21
8 7 8 7 5 9 3 8 13 7 3 11 13 15 15 12 10 5 2 1 2 2 3 6 9 16 17 20 28 26 27 31 35 32 30 26 32 30 27 26 21 22 21 22
6 8 4 11 11 2 11 13 4 8 10 10 9 11 10 8 4 2 3 2 3 3 2 4 3 4 12 15 21 28 31 31 36 31 31 30 31 29 25 36 32 25 25 24
4 6 3 5 8 7 15 12 7 5 5 7 7 5 5 4 4 3 2 4 3 3 3 2 2 4 9 17 14 11 24 30 32 34 29 30 25 29 23 30 30 28 28 26
3 4 6 3 3 4 9 9 6 7 6 8 8 4 4 6 6 7 7 5 2 2 1 1 1 0 2 4 9 16 19 28 23 25 21 22 10 13 9 11 36 32 32 33
3 6 7 5 1 2 12 10 6 7 4 7 7 9 9 8 6 5 6 7 5 6 7 8 8 7 6 5 3 3 8 11 9 6 10 16 10 11 11 10 10 39 31 20
4 4 6 6 5 4 10 11 9 6 7 9 11 12 11 11 13 13 13 11 9 10 10 9 11 11 11 10 11 11 9 7 9 10 11 13 15 18 20 18 17 20 23 23
4 5 3 4 4 5 5 8 8 8 6 7 13 13 15 14 11 12 14 13 11 11 11 8 8 9 10 11 12 13 13 12 12 13 12 15 15 15 17 17 17 15 13 12
8 7 6 6 6 8 10 11 13 12 9 10 12 10 10 9 12 13 14 15 15 14 12 10 9 8 6 9 11 11 12 12 13 14 15 15 15 13 12 12 12 10 9 11
9 11 10 11 9 10 10 10 10 13 12 11 11 11 10 11 11 12 13 14 13 13 12 10 10 8 7 8 9 10 11 13 15 16 16 17 16 14 15 15 15 14 15 15
19 16 14 13 13 13 10 12 14 14 16 13 13 11 9 10 12 10 10 10 8 7 6 6 7 7 5 4 6 8 9 11 11 13 14 15 13 12 15 16 14 16 15 17
Wind_Direction
186 198 197 209 205 208 29 122 353 313 271 305 253 231 212 196 191 201 192 191 176 161 159 163 163 148 151 145 156 194 196 203 196 184 184 188 189 186 177 168 167 161 177 177
189 201 203 209 211 230 248 334 310 273 317 135 127 303 212 202 192 199 194 197 195 197 190 189 185 161 166 157 164 171 192 187 178 181 189 184 181 187 191 178 177 176 174 191
195 199 207 225 224 217 178 289 294 245 205 176 211 333 203 194 194 200 208 202 212 206 200 192 175 179 179 167 156 162 172 185 179 183 191 184 185 189 195 188 190 203 211 208
208 205 198 210 218 196 160 260 254 211 186 220 202 212 196 196 201 203 208 208 204 210 207 212 192 184 180 169 174 172 180 179 190 184 181 199 195 196 193 194 202 208 205 198
197 204 229 228 230 176 195 190 301 225 227 242 217 226 221 216 209 210 205 204 207 213 213 213 212 190 204 195 183 189 191 182 189 197 181 192 201 201 195 197 215 219 210 206
215 251 214 200 209 191 144 71 253 246 237 268 229 216 260 239 233 205 198 202 207 212 217 208 223 203 218 206 201 181 181 193 204 208 211 201 200 209 206 211 205 212 213 215
262 240 206 210 175 184 210 216 184 308 320 240 343 206 255 331 167 214 216 212 209 211 219 211 215 212 222 222 205 192 190 187 194 205 212 206 205 204 206 214 223 218 218 212
290 179 202 210 214 205 208 209 183 142 313 313 221 236 349 210 199 206 228 233 221 225 227 223 215 216 218 227 215 215 218 208 193 197 200 206 200 198 202 211 229 217 212 218
313 168 147 226 200 207 195 196 212 117 322 288 251 267 242 210 220 222 196 186 229 231 233 227 213 217 215 224 214 216 250 221 210 193 198 205 213 211 223 227 219 219 225 234
283 276 135 161 197 197 188 180 157 109 6 278 271 282 125 130 241 205 203 191 200 209 229 230 231 220 218 216 214 233 230 224 215 213 215 208 215 214 215 221 222 222 220 233
247 260 77 159 184 185 173 181 132 138 185 217 281 313 301 322 110 162 163 193 208 220 231 216 209 220 220 222 213 221 245 237 230 217 221 221 218 224 225 222 220 228 242 247
183 219 81 100 176 206 202 197 187 155 210 229 245 316 304 284 80 111 156 134 192 224 219 230 231 233 226 214 215 227 242 236 233 229 221 226 232 231 226 224 227 230 236 247
104 210 125 100 107 134 167 194 205 203 215 199 180 235 258 276 181 190 178 209 293 253 213 216 225 230 231 228 228 226 227 224 229 236 235 246 238 238 242 235 232 236 239 239
68 118 176 147 129 119 126 169 195 198 210 212 203 203 183 168 113 148 241 271 242 141 159 198 223 229 232 230 222 229 234 240 231 247 245 245 237 234 233 237 244 241 233 239
70 98 111 94 95 97 103 159 187 207 203 213 204 204 168 133 134 132 117 118 133 153 164 182 188 203 216 231 235 224 230 234 240 245 241 237 232 239 242 241 243 244 244 242
154 159 135 126 145 59 50 41 30 185 192 214 201 177 157 137 132 133 138 136 138 184 184 210 224 218 229 212 228 224 224 238 237 235 238 241 232 226 238 241 242 246 247 243
154 202 187 138 207 232 338 21 30 38 136 173 164 152 124 128 133 138 122 27 347 311 262 218 224 228 231 232 225 217 224 239 239 241 245 245 232 241 241 231 237 240 241 245
172 214 165 148 169 181 242 256 137 73 65 118 141 140 135 141 139 93 27 340 341 14 59 356 12 264 240 230 233 242 243 242 241 243 244 245 242 242 258 227 231 242 243 248
189 215 224 150 194 157 190 199 227 184 139 98 98 117 156 171 133 154 56 49 49 62 102 105 12 338 274 252 228 246 242 241 256 254 257 250 246 250 256 222 231 236 236 241
213 219 237 145 129 191 194 209 230 214 223 225 238 252 217 183 161 149 136 121 109 99 262 291 249 73 75 117 231 254 268 248 298 255 242 248 230 249 238 276 229 237 239 241
176 204 213 225 199 215 179 188 190 200 262 253 247 212 208 223 224 230 229 226 238 255 269 271 239 236 216 208 185 215 224 195 210 212 253 227 161 212 231 250 235 235 240 250
269 246 207 204 210 251 214 218 228 258 287 252 233 212 197 205 232 257 268 267 263 265 263 258 252 230 230 227 228 229 238 236 217 216 221 206 233 245 239 242 232 227 241 253
262 232 226 226 220 237 225 232 251 264 241 235 223 219 231 241 252 260 260 259 264 264 265 276 268 247 235 233 229 231 230 232 250 251 236 229 233 237 241 239 241 240 242 247
231 244 253 264 245 255 265 272 276 277 268 229 230 238 245 266 259 256 260 267 274 267 266 272 280 276 249 243 244 241 237 236 228 238 255 249 237 234 233 233 226 237 263 273
250 249 257 264 293 293 288 286 266 255 253 248 241 234 231 241 254 268 274 276 274 263 255 259 267 269 261 257 262 261 256 256 253 256 251 248 250 245 243 241 237 244 256 266
263 261 261 281 290 298 285 281 284 249 238 240 232 242 252 264 260 268 274 280 279 251 232 234 252 268 279 276 268 270 272 269 265 261 255 257 236 245 249 252 263 264 263 268
Height
3148 3152 3155 3158 3160 3162 3162 3164 3165 3166 3167 3166 3164 3164 3167 3169 3175 3179 3184 3188 3190 3194 3196 3199 3202 3203 3204 3205 3207 3209 3211 3214 3215 3217 3220 3223 3225 3227 3228 3229 3231 3233 3235 3237
3148 3150 3155 3157 3160 3161 3163 3164 3163 3165 3164 3168 3166 3166 3164 3168 3173 3177 3181 3186 3189 3192 3195 3199 3201 3203 3204 3206 3207 3209 3211 3214 3216 3217 3220 3223 3225 3227 3229 3230 3232 3234 3236 3237
3147 3151 3153 3156 3159 3161 3162 3165 3163 3163 3163 3166 3164 3162 3161 3164 3170 3175 3178 3185 3188 3191 3194 3197 3200 3203 3204 3205 3207 3209 3211 3213 3216 3217 3220 3223 3225 3227 3230 3232 3233 3234 3235 3236
3147 3149 3151 3154 3157 3160 3161 3161 3162 3163 3162 3163 3164 3164 3162 3157 3168 3172 3175 3180 3183 3188 3192 3197 3200 3202 3204 3205 3207 3209 3211 3213 3216 3218 3219 3223 3225 3227 3229 3231 3232 3233 3234 3236
3148 3148 3150 3152 3155 3157 3159 3160 3164 3161 3161 3162 3161 3162 3158 3161 3163 3165 3169 3174 3179 3185 3190 3194 3198 3201 3203 3204 3206 3208 3210 3213 3215 3217 3220 3222 3224 3226 3227 3229 3230 3233 3235 3236
3145 3147 3148 3150 3151 3156 3159 3162 3166 3161 3161 3160 3158 3160 3154 3153 3153 3160 3166 3171 3176 3181 3187 3192 3197 3199 3201 3203 3205 3207 3208 3211 3214 3216 3219 3221 3223 3225 3226 3228 3230 3232 3233 3236
3144 3143 3145 3149 3151 3154 3158 3162 3166 3165 3161 3159 3156 3158 3151 3150 3150 3156 3161 3166 3171 3178 3184 3188 3193 3197 3200 3202 3204 3206 3209 3210 3213 3216 3218 3220 3223 3225 3227 3228 3229 3230 3231 3234
3140 3140 3142 3144 3147 3149 3152 3157 3159 3163 3166 3160 3158 3155 3153 3153 3153 3155 3160 3165 3170 3174 3179 3185 3190 3195 3198 3201 3203 3206 3208 3210 3211 3214 3217 3219 3221 3224 3225 3227 3228 3229 3230 3231
3140 3138 3139 3139 3143 3147 3150 3154 3158 3158 3164 3161 3155 3152 3151 3151 3151 3153 3156 3161 3165 3170 3176 3181 3185 3191 3195 3198 3202 3205 3207 3209 3211 3212 3214 3217 3219 3221 3224 3225 3226 3227 3229 3231
3139 3139 3137 3137 3142 3145 3147 3151 3156 3157 3167 3162 3151 3149 3149 3151 3151 3151 3154 3157 3162 3169 3172 3177 3181 3187 3191 3195 3200 3203 3206 3208 3210 3211 3213 3214 3217 3219 3221 3223 3225 3227 3227 3229
3138 3140 3140 3139 3140 3141 3148 3150 3152 3155 3160 3157 3152 3149 3148 3149 3151 3154 3155 3158 3162 3165 3169 3175 3178 3182 3188 3192 3196 3200 3204 3207 3209 3210 3211 3213 3214 3217 3219 3220 3222 3224 3225 3226
3136 3137 3138 3139 3140 3140 3144 3147 3148 3149 3155 3152 3151 3151 3148 3149 3151 3154 3156 3159 3161 3163 3166 3169 3174 3179 3183 3187 3191 3197 3200 3204 3207 3209 3210 3212 3213 3215 3216 3219 3220 3221 3223 3224
3136 3137 3138 3141 3143 3142 3143 3143 3145 3146 3148 3148 3151 3150 3148 3149 3150 3152 3155 3158 3158 3156 3158 3163 3168 3173 3180 3184 3187 3193 3196 3200 3203 3206 3208 3209 3211 3213 3215 3216 3217 3219 3221 3221
3137 3135 3135 3140 3141 3141 3142 3142 3142 3143 3145 3146 3148 3148 3149 3150 3151 3153 3155 3156 3155 3156 3157 3161 3165 3170 3175 3180 3184 3188 3193 3195 3198 3200 3203 3205 3206 3208 3210 3212 3214 3215 3216 3218
3140 3140 3138 3142 3141 3143 3143 3142 3142 3142 3143 3144 3146 3148 3149 3151 3153 3154 3156 3156 3156 3157 3158 3160 3163 3165 3170 3175 3180 3183 3187 3190 3193 3195 3197 3199 3201 3203 3205 3207 3209 3211 3212 3214
3141 3143 3141 3139 3142 3143 3144 3144 3143 3141 3141 3143 3144 3147 3149 3151 3153 3155 3156 3156 3157 3158 3158 3160 3161 3165 3168 3171 3175 3178 3183 3185 3187 3189 3190 3193 3196 3198 3200 3202 3204 3206 3208 3210
3139 3142 3143 3140 3141 3143 3147 3147 3146 3143 3142 3144 3145 3146 3149 3150 3152 3153 3154 3154 3156 3157 3157 3158 3160 3161 3166 3169 3171 3171 3174 3179 3181 3183 3184 3186 3187 3191 3193 3195 3198 3201 3203 3205
3139 3142 3139 3141 3143 3146 3141 3148 3151 3146 3145 3146 3148 3149 3151 3151 3152 3154 3155 3155 3156 3156 3156 3157 3157 3159 3161 3163 3167 3168 3169 3171 3174 3176 3177 3180 3182 3183 3185 3187 3192 3194 3197 3200
3139 3139 3138 3139 3141 3143 3145 3146 3147 3145 3149 3149 3149 3150 3151 3152 3152 3154 3155 3156 3157 3157 3158 3158 3158 3158 3156 3158 3160 3163 3165 3166 3166 3167 3170 3168 3170 3175 3177 3182 3185 3188 3191 3193
3138 3138 3139 3139 3140 3141 3142 3144 3144 3145 3146 3149 3151 3151 3152 3153 3152 3154 3155 3156 3157 3158 3158 3159 3159 3158 3157 3156 3157 3158 3157 3160 3161 3163 3160 3164 3168 3170 3173 3176 3177 3182 3184 3187
3138 3138 3138 3138 3139 3140 3141 3142 3144 3147 3151 3147 3149 3149 3150 3152 3153 3154 3154 3155 3157 3157 3156 3157 3158 3158 3157 3156 3155 3157 3157 3157 3157 3158 3160 3164 3164 3168 3168 3170 3172 3177 3183 3180
3138 3138 3138 3138 3139 3141 3141 3142 3144 3145 3145 3146 3147 3148 3149 3149 3152 3153 3153 3153 3153 3154 3155 3155 3154 3154 3154 3154 3154 3155 3155 3157 3157 3156 3159 3162 3163 3166 3166 3169 3171 3173 3174 3176
3137 3137 3137 3138 3138 3137 3138 3140 3141 3142 3144 3145 3146 3147 3148 3149 3149 3150 3150 3150 3151 3151 3151 3151 3151 3151 3151 3152 3153 3153 3155 3156 3156 3157 3157 3158 3161 3162 3164 3165 3166 3167 3169 3170
3134 3134 3135 3136 3136 3136 3136 3137 3137 3139 3141 3143 3144 3145 3145 3147 3147 3147 3147 3148 3148 3149 3149 3148 3148 3148 3148 3149 3150 3151 3152 3152 3153 3154 3156 3156 3157 3159 3160 3161 3162 3162 3163 3165
3131 3131 3132 3132 3132 3132 3133 3132 3133 3135 3137 3138 3140 3141 3142 3143 3144 3144 3144 3144 3144 3144 3145 3145 3145 3145 3146 3146 3147 3148 3148 3150 3150 3150 3150 3151 3152 3154 3156 3157 3158 3159 3159 3161
3126 3128 3128 3128 3128 3129 3129 3129 3129 3130 3133 3135 3137 3138 3140 3140 3141 3142 3142 3141 3140 3141 3142 3142 3143 3143 3143 3144 3144 3144 3145 3145 3145 3146 3147 3148 3149 3149 3151 3153 3154 3155 3154 3155